Regional Weather Roundup
Issued by NWS Glasgow, MT

Home | Current Version | Previous Version | Text Only | Print | Product List | Glossary On
Versions: 1 2 3 4 5 6 7 8 9 10 11 12 13 14 15 16 17 18 19 20 21 22 23 24 25 26 27
000
ASUS45 KGGW 282315
RWRGGW
HOURLY REGIONAL WEATHER ROUNDUP FOR NORTHEAST MONTANA
NATIONAL WEATHER SERVICE GLASGOW MONTANA
500 PM MDT THU APR 28 2016

NOTE: "FAIR" INDICATES FEW OR NO CLOUDS BELOW 12,000 FEET WITH NO
SIGNIFICANT WEATHER AND/OR OBSTRUCTIONS TO VISISBILITY.

NORTHEAST MONTANA


CITY           SKY/WX    TMP DP  RH WIND       PRES   REMARKS
GLASGOW        PTSUNNY   54  27  35 SE16      30.12R
PLENTYWOOD       N/A     57  12  17 E12G23      N/A
WOLF POINT     CLOUDY    56  27  32 E14       30.12S
JORDAN           N/A     49  30  48 E12       30.10S
SIDNEY         CLOUDY    54  28  37 E12       30.13S
GLENDIVE       CLOUDY    48  28  46 E9        30.13S
MALTA            N/A     56  32  40 E7G15       N/A
OPHEIM           N/A     52  19  28 CALM      30.04S

FORT PECK REPORTS


CITY           SKY/WX    TMP DP  RH WIND       PRES   REMARKS
FORT PECK        N/A     53  27  36 E15G24      N/A
THE PINES        N/A     52  26  36 NE8         N/A

SOUTHEAST MONTANA


CITY           SKY/WX    TMP DP  RH WIND       PRES   REMARKS
BILLINGS       PTSUNNY   40  33  76 NE6       30.08S
MILES CITY     LGT RAIN  44  35  70 E10       30.10S
BAKER          CLOUDY    42  33  70 SE15      30.12S
LIVINGSTON     CLOUDY    40  27  59 E22G29    30.02R

CENTRAL MONTANA


CITY           SKY/WX    TMP DP  RH WIND       PRES   REMARKS
HAVRE          CLOUDY    53  34  48 SE13G21   30.10S
LEWISTOWN      CLOUDY    41  31  67 E13       30.08F
GREAT FALLS    CLOUDY    42  34  73 E14       30.08R
CUT BANK       CLOUDY    43  33  68 CALM      30.11S
HELENA         CLOUDY    46  30  53 N12       30.02F
BUTTE          CLOUDY    36  31  82 S8        29.99S
BOZEMAN        CLOUDY    45  27  49 NE9       29.99S

WESTERN MONTANA


CITY           SKY/WX    TMP DP  RH WIND       PRES   REMARKS
MISSOULA       CLOUDY    49  34  56 NE8       30.02R
KALISPELL      NOT AVBL

NORTH DAKOTA


CITY           SKY/WX    TMP DP  RH WIND       PRES   REMARKS
WILLISTON      CLOUDY    58  21  24 E10       30.13S
DICKINSON      CLOUDY    50  25  37 E9        30.08R
MINOT          MOSUNNY   59  11  15 NE12      30.14R
BISMARCK       CLOUDY    54  21  27 NE10      30.09S

SOUTHERN SASKATCHEWAN


CITY           SKY/WX    TMP DP  RH WIND       PRES   REMARKS
REGINA         PTSUNNY   59  18  20 E9G20     30.18R
MOOSE JAW      CLOUDY    61  19  20 E8        30.16F
ESTEVAN        CLOUDY    57  14  18 E16G23    30.16R
SWIFT CURRENT  MOSUNNY   55  21  26 E16G23    30.13F





USA.gov is the U.S. government's official web portal to all federal, state and local government web resources and services.